Overview Statistics Trail Chart Weather Telemetry Raw packets
 

This is the latest recevied weather packets stored in our database for station/object N5ATR. If no packets are shown the sender has not sent any weather packets the latest 10 day(s).

<< 36 37 38 39 40 41 42 >>
Time Temp. Humidity Pressure Rain* Wind** Luminosity Snow
1788446447 21.67° C 47% 1023.3 hPa 0 mm - 216 W/m² -
1788446143 21.11° C 47% 1023.1 hPa 0 mm - 194 W/m² -
1788445839 21.11° C 48% 1023.1 hPa 0 mm - 178 W/m² -
1788445534 21.11° C 48% 1023.3 hPa 0 mm - 79 W/m² -
1788445231 20.56° C 48% 1023 hPa 0 mm - 33 W/m² -
1788444926 20.56° C 49% 1023.5 hPa 0 mm - 34 W/m² -
1788444621 20° C 51% 1023 hPa 0 mm - 33 W/m² -
1788444317 18.89° C 53% 1023 hPa 0 mm - 33 W/m² -
1788444012 18.89° C 53% 1022.6 hPa 0 mm - 31 W/m² -
1788443708 18.89° C 53% 1022.9 hPa 0 mm - 29 W/m² -
1788443408 18.89° C 53% 1022.9 hPa 0 mm - 26 W/m² -
1788443107 18.89° C 53% 1022.6 hPa 0 mm - 24 W/m² -
1788442803 18.89° C 53% 1022.5 hPa 0 mm - 23 W/m² -
1788442500 18.89° C 53% 1022.5 hPa 0 mm - 21 W/m² -
1788442195 18.89° C 52% 1022.5 hPa 0 mm - 19 W/m² -
1788441891 18.89° C 52% 1022.5 hPa 0 mm - 18 W/m² -
1788441590 18.89° C 52% 1022.4 hPa 0 mm - 17 W/m² -
1788441286 18.89° C 53% 1022.5 hPa 0 mm - 18 W/m² -
1788440984 18.89° C 53% 1022.3 hPa 0 mm - 16 W/m² -
1788440680 18.89° C 53% 1022 hPa 0 mm - 13 W/m² -
1788440379 18.89° C 52% 1022.2 hPa 0 mm - 12 W/m² -
1788440079 18.89° C 52% 1022 hPa 0 mm - 9 W/m² -
1788439779 18.89° C 52% 1021.8 hPa 0 mm - 6 W/m² -
1788439474 18.89° C 52% 1022 hPa 0 mm - 4 W/m² -
1788439173 18.89° C 52% 1022 hPa 0 mm - 3 W/m² -

* Rain latest hour (hover to see other rain measurements)
** Current wind speed in m/s (hover to see current wind gust speed)